YO8PIC-13 Weather Reports


time (UTC)temp
C
wind
direction
speed
KPH
gust
KPH
rain 1hr
cm
rain 24hr
cm
rain mn
cm
humidity
%
barometer
mb
20260906051811 18 0.0 0.0 0.00 0.00 0.00 71 1022.1
20260906050811 18 0.0 0.0 0.00 0.00 0.00 69 1022.1
20260906045811 16 0.0 0.0 0.00 0.00 0.00 76 1022.1
20260906044811 16 0.0 0.0 0.00 0.00 0.00 78 1022.3
20260906043811 16 0.0 0.0 0.00 0.00 0.00 78 1021.9
20260906042811 15 0.0 0.0 0.00 0.00 0.00 82 1021.4
20260906041812 15 0.0 0.0 0.00 0.00 0.00 84 1021.4
20260906040811 15 0.0 0.0 0.00 0.00 0.00 85 1021.2
20260906035812 15 0.0 0.0 0.00 0.00 0.00 86 1021.0
20260906034812 15 0.0 0.0 0.00 0.00 0.00 86 1020.9
20260906033811 15 0.0 0.0 0.00 0.00 0.00 86 1020.7
20260906032811 15 0.0 0.0 0.00 0.00 0.00 85 1020.8
20260906031811 15 0.0 0.0 0.00 0.00 0.00 85 1020.8
20260906030812 15 0.0 0.0 0.00 0.00 0.00 85 1020.7
20260906025812 15 0.0 0.0 0.00 0.00 0.00 85 1020.6
20260906024812 15 0.0 0.0 0.00 0.00 0.00 85 1020.5
20260906023811 15 0.0 0.0 0.00 0.00 0.00 84 1020.5
20260906022811 16 0.0 0.0 0.00 0.00 0.00 82 1020.5
20260906021812 16 0.0 0.0 0.00 0.00 0.00 81 1020.3
20260906020812 16 0.0 0.0 0.00 0.00 0.00 80 1020.4
20260906015812 16 0.0 0.0 0.00 0.00 0.00 79 1020.5
20260906014811 17 0.0 0.0 0.00 0.00 0.00 76 1020.3
20260906013811 17 0.0 0.0 0.00 0.00 0.00 76 1020.5
20260906012811 17 0.0 0.0 0.00 0.00 0.00 77 1020.4
20260906011811 17 0.0 0.0 0.00 0.00 0.00 75 1020.4
20260906010812 17 0.0 0.0 0.00 0.00 0.00 76 1020.4
20260906005811 17 0.0 0.0 0.00 0.00 0.00 77 1020.4
20260906004812 17 0.0 0.0 0.00 0.00 0.00 79 1020.5
20260906003812 17 0.0 0.0 0.00 0.00 0.00 78 1020.6
20260906002811 17 0.0 0.0 0.00 0.00 0.00 76 1020.7
20260906001811 17 0.0 0.0 0.00 0.00 0.00 76 1020.6
20260906000811 17 0.0 0.0 0.00 0.00 0.00 78 1020.7
20260905235812 17 0.0 0.0 0.00 0.00 0.00 78 1020.7
20260905234811 17 0.0 0.0 0.00 0.00 0.00 77 1020.7
20260905233812 17 0.0 0.0 0.00 0.00 0.00 79 1020.5
20260905232811 17 0.0 0.0 0.00 0.00 0.00 77 1020.6
20260905231811 17 0.0 0.0 0.00 0.00 0.00 76 1020.7
20260905230811 18 0.0 0.0 0.00 0.00 0.00 76 1020.9
20260905225812 18 0.0 0.0 0.00 0.00 0.00 76 1020.8
20260905224811 18 0.0 0.0 0.00 0.00 0.00 76 1021.1
20260905223812 18 0.0 0.0 0.00 0.00 0.00 77 1021.0
20260905222811 18 0.0 0.0 0.00 0.00 0.00 78 1021.0
20260905221812 18 0.0 0.0 0.00 0.00 0.00 78 1021.0
20260905220811 17 0.0 0.0 0.00 0.00 0.00 79 1020.9
20260905215812 18 0.0 0.0 0.00 0.00 0.00 78 1020.8
20260905214812 18 0.0 0.0 0.00 0.00 0.00 79 1020.6
20260905213811 18 0.0 0.0 0.00 0.00 0.00 79 1020.4
20260905212811 17 0.0 0.0 0.00 0.00 0.00 80 1020.3
20260905211811 17 0.0 0.0 0.00 0.00 0.00 79 1020.3
20260905210811 17 0.0 0.0 0.00 0.00 0.00 83 1020.2
20260905205812 17 0.0 0.0 0.00 0.00 0.00 84 1020.2
20260905204811 17 0.0 0.0 0.00 0.00 0.00 86 1020.1
20260905203812 17 0.0 0.0 0.00 0.00 0.00 85 1020.0
20260905202811 17 0.0 0.0 0.00 0.00 0.00 86 1019.9
20260905201811 17 0.0 0.0 0.00 0.00 0.00 85 1019.8
20260905200811 17 0.0 0.0 0.00 0.00 0.00 84 1019.6
20260905195811 17 0.0 0.0 0.00 0.00 0.00 86 1019.6
20260905194811 17 0.0 0.0 0.00 0.00 0.00 85 1019.7
20260905193811 17 0.0 0.0 0.00 0.00 0.00 88 1019.7
20260905192812 17 0.0 0.0 0.00 0.00 0.00 85 1019.6
20260905191811 17 0.0 0.0 0.00 0.00 0.00 84 1019.5
20260905190811 17 0.0 0.0 0.00 0.00 0.00 85 1019.3
20260905185812 17 0.0 0.0 0.00 0.00 0.00 88 1019.4
20260905184812 17 0.0 0.0 0.00 0.00 0.00 88 1019.8
20260905183811 18 0.0 0.0 0.00 0.00 0.00 85 1019.5
20260905182811 18 0.0 0.0 0.00 0.00 0.00 86 1019.4
20260905181811 18 0.0 0.0 0.00 0.00 0.00 85 1019.4
20260905180811 18 0.0 0.0 0.00 0.00 0.00 85 1019.1
20260905175811 18 0.0 0.0 0.00 0.00 0.00 85 1019.0
20260905174811 18 0.0 0.0 0.00 0.00 0.00 89 1018.7
20260905173812 18 0.0 0.0 0.00 0.00 0.00 83 1019.1
20260905172811 18 0.0 0.0 0.00 0.00 0.00 87 1018.9
20260905171811 20 0.0 0.0 0.00 0.00 0.00 68 1018.2
20260905170811 21 0.0 0.0 0.00 0.00 0.00 50 1018.3
20260905165811 23 0.0 0.0 0.00 0.00 0.00 41 1018.4
20260905164811 23 0.0 0.0 0.00 0.00 0.00 39 1018.0
20260905163811 23 0.0 0.0 0.00 0.00 0.00 39 1017.5
20260905162812 23 0.0 0.0 0.00 0.00 0.00 38 1017.0
20260905161811 23 0.0 0.0 0.00 0.00 0.00 37 1017.1
20260905160811 23 0.0 0.0 0.00 0.00 0.00 37 1017.5
20260905155811 23 0.0 0.0 0.00 0.00 0.00 37 1017.3
20260905154811 24 0.0 0.0 0.00 0.00 0.00 36 1017.4
20260905153812 24 0.0 0.0 0.00 0.00 0.00 36 1017.4
20260905152813 25 0.0 0.0 0.00 0.00 0.00 35 1016.9
20260905151811 25 0.0 0.0 0.00 0.00 0.00 35 1017.1
20260905150811 25 0.0 0.0 0.00 0.00 0.00 35 1016.7
20260905145812 26 0.0 0.0 0.00 0.00 0.00 33 1016.1
20260905144812 29 0.0 0.0 0.00 0.00 0.00 31 1015.3
20260905143811 27 0.0 0.0 0.00 0.00 0.00 33 1014.9
20260905142811 27 0.0 0.0 0.00 0.00 0.00 32 1014.7
20260905141813 29 0.0 0.0 0.00 0.00 0.00 30 1014.5
20260905140812 33 0.0 0.0 0.00 0.00 0.00 24 1013.7
20260905135811 33 0.0 0.0 0.00 0.00 0.00 21 1013.2
20260905134811 34 0.0 0.0 0.00 0.00 0.00 21 1013.1
20260905133811 35 0.0 0.0 0.00 0.00 0.00 19 1013.1
20260905132811 42 0.0 0.0 0.00 0.00 0.00 13 1012.9
20260905131812 35 0.0 0.0 0.00 0.00 0.00 19 1013.1
20260905130811 35 0.0 0.0 0.00 0.00 0.00 19 1013.2
20260905125811 36 0.0 0.0 0.00 0.00 0.00 18 1013.3
20260905124811 37 0.0 0.0 0.00 0.00 0.00 16 1013.3
20260905123811 37 0.0 0.0 0.00 0.00 0.00 16 1013.3
20260905122811 43 0.0 0.0 0.00 0.00 0.00 11 1013.4
20260905121812 36 0.0 0.0 0.00 0.00 0.00 18 1013.6
20260905120811 40 0.0 0.0 0.00 0.00 0.00 13 1013.5
20260905115811 44 0.0 0.0 0.00 0.00 0.00 11 1013.6
20260905114812 40 0.0 0.0 0.00 0.00 0.00 14 1013.8
20260905113811 40 0.0 0.0 0.00 0.00 0.00 13 1013.9
20260905112811 40 0.0 0.0 0.00 0.00 0.00 14 1013.9
20260905111811 42 0.0 0.0 0.00 0.00 0.00 12 1014.0
20260905110813 45 0.0 0.0 0.00 0.00 0.00 11 1014.0
20260905105811 43 0.0 0.0 0.00 0.00 0.00 12 1014.0
20260905104811 37 0.0 0.0 0.00 0.00 0.00 17 1014.2
20260905103811 35 0.0 0.0 0.00 0.00 0.00 19 1014.5
20260905102811 36 0.0 0.0 0.00 0.00 0.00 19 1014.6
20260905101811 38 0.0 0.0 0.00 0.00 0.00 15 1014.7
20260905100811 33 0.0 0.0 0.00 0.00 0.00 22 1014.8
20260905095811 33 0.0 0.0 0.00 0.00 0.00 22 1015.0
20260905094811 35 0.0 0.0 0.00 0.00 0.00 21 1015.0
20260905093811 33 0.0 0.0 0.00 0.00 0.00 23 1014.9
20260905092811 37 0.0 0.0 0.00 0.00 0.00 17 1015.1
20260905091811 36 0.0 0.0 0.00 0.00 0.00 20 1015.1
20260905090810 36 0.0 0.0 0.00 0.00 0.00 19 1015.4
20260905085811 33 0.0 0.0 0.00 0.00 0.00 24 1015.5
20260905084811 37 0.0 0.0 0.00 0.00 0.00 19 1015.6
20260905083811 35 0.0 0.0 0.00 0.00 0.00 21 1015.7
20260905082811 30 0.0 0.0 0.00 0.00 0.00 29 1016.0
20260905081811 30 0.0 0.0 0.00 0.00 0.00 30 1016.1
20260905080811 29 0.0 0.0 0.00 0.00 0.00 31 1016.3
20260905075811 28 0.0 0.0 0.00 0.00 0.00 31 1016.3
20260905074811 28 0.0 0.0 0.00 0.00 0.00 32 1016.5
20260905073811 28 0.0 0.0 0.00 0.00 0.00 33 1016.5
20260905072811 27 0.0 0.0 0.00 0.00 0.00 35 1016.6
20260905071811 27 0.0 0.0 0.00 0.00 0.00 36 1016.6
20260905070811 27 0.0 0.0 0.00 0.00 0.00 36 1016.6
20260905065811 26 0.0 0.0 0.00 0.00 0.00 37 1016.7
20260905064811 26 0.0 0.0 0.00 0.00 0.00 38 1016.9
20260905063811 25 0.0 0.0 0.00 0.00 0.00 39 1016.9
20260905062810 25 0.0 0.0 0.00 0.00 0.00 40 1016.9
20260905061811 24 0.0 0.0 0.00 0.00 0.00 42 1017.0
20260905060810 23 0.0 0.0 0.00 0.00 0.00 42 1016.8
20260905055811 23 0.0 0.0 0.00 0.00 0.00 45 1016.9
20260905054810 22 0.0 0.0 0.00 0.00 0.00 48 1016.8
20260905053811 21 0.0 0.0 0.00 0.00 0.00 50 1017.0
20260905052811 20 0.0 0.0 0.00 0.00 0.00 55 1017.1